Retour au catalogue

STARLINK-32169

ActifCommunicationsVLEO
NORAD 60589·PAYLOAD·🇺🇸 United States

Lancé Aug 20, 2024 depuis Cape Canaveral Space Force Station

Loading…

Prochains Passages (prochaines 24 heures)

TLE

FraisSource: CelesTrak SupGP

Époque: Sep 14, 2026, 20:57 UTC

1 60589C 24150G   26257.87340278 -.00045158  00000+0 -13339-2 0  2573
2 60589  53.1587 147.8259 0001371  98.6050 233.2466 15.34419868    11

Suivez STARLINK-32169 en temps réel avec AllMySat

Download on the App Store